Weather History for Hot Springs, VA

Change the Weather History Date:

Thursday, August 8, 2013

  Actual Average Record
Temperature  
Mean Temperature 66 °F -  
Max Temperature 71 °F 74 °F 86 °F (2007)
Min Temperature 62 °F 59 °F 48 °F (2004)
Cooling Degree Days 2    
Growing Degree Days 16 (Base 50)    
Moisture  
Dew Point 66 °F    
Average Humidity 99    
Maximum Humidity 100    
Minimum Humidity 88    
Precipitation  
Precipitation 0.56 in - - ()
Sea Level Pressure  
Sea Level Pressure 30.20 in    
Wind  
Wind Speed 8 mph (SSW)    
Max Wind Speed 13 mph    
Max Gust Speed 18 mph    
Visibility 4 miles    
Events Fog , Rain , Thunderstorm    
Averages and records for this station are not official NWS values.
T = Trace of Precipitation, MM = Missing Value Source: NWS Daily Summary

Daily Weather History Graph

Daily Weather History Graph

Search for Another Location

Airport:

Trip Planner

Search our weather history database for the weather conditions in past years. The results will help you decide how hot, cold, wet, or windy it might be!

Date:

Astronomy

Aug. 08, 2013 Rise Set
Actual Time 6:28 AM EDT 8:20 PM EDT
Civil Twilight 6:00 AM EDT 8:49 PM EDT
Nautical Twilight 5:25 AM EDT 9:23 PM EDT
Astronomical Twilight 4:48 AM EDT 10:00 PM EDT
Moon 8:11 AM EDT (8/8) 9:01 PM EDT (8/8)
Length of Visible Light 14h 49m
Length of Day
13h 51m
Waxing Crescent, 3% of the Moon is Illuminated
Aug 8
Waxing Crescent
Aug 14
First Quarter
Aug 20
Full
Aug 28
Last Quarter
Sep 5
New

Hourly Weather History & Observations

Time (EDT) Temp. Dew Point Humidity Pressure Visibility Wind Dir Wind Speed Gust Speed Precip Events Conditions
12:15 AM 64.4 °F 64.4 °F 100% 30.22 in 4.0 mi SSW 9.2 mph 16.1 mph N/A   Overcast
12:35 AM 62.6 °F 62.6 °F 100% 30.22 in 7.0 mi SSW 9.2 mph - N/A   Mostly Cloudy
12:55 AM 64.4 °F 64.4 °F 100% 30.22 in 7.0 mi South 9.2 mph - N/A   Mostly Cloudy
1:15 AM 64.4 °F 64.4 °F 100% 30.22 in 5.0 mi SSW 9.2 mph - N/A   Overcast
1:35 AM 64.4 °F 64.4 °F 100% 30.22 in 5.0 mi SSW 10.4 mph - N/A   Overcast
1:55 AM 64.4 °F 64.4 °F 100% 30.21 in 5.0 mi South 8.1 mph - N/A   Overcast
2:15 AM 64.4 °F 64.4 °F 100% 30.21 in 2.5 mi South 10.4 mph 16.1 mph N/A   Overcast
2:35 AM 64.4 °F 64.4 °F 100% 30.20 in 3.0 mi SSW 10.4 mph 16.1 mph N/A   Overcast
2:55 AM 64.4 °F 64.4 °F 100% 30.20 in 3.0 mi SSW 11.5 mph 18.4 mph N/A   Overcast
3:15 AM 64.4 °F 64.4 °F 100% 30.20 in 4.0 mi SSW 9.2 mph 16.1 mph N/A   Overcast
3:35 AM 64.4 °F 64.4 °F 100% 30.20 in 7.0 mi SSW 9.2 mph 17.3 mph N/A   Mostly Cloudy
3:55 AM 64.4 °F 64.4 °F 100% 30.19 in 7.0 mi SW 11.5 mph - N/A   Scattered Clouds
4:15 AM 64.4 °F 64.4 °F 100% 30.19 in 7.0 mi SW 11.5 mph - N/A   Scattered Clouds
4:35 AM 64.4 °F 64.4 °F 100% 30.19 in 7.0 mi SSW 10.4 mph 17.3 mph N/A   Mostly Cloudy
4:55 AM 64.4 °F 64.4 °F 100% 30.19 in 7.0 mi SSW 6.9 mph - N/A   Overcast
5:15 AM 64.4 °F 64.4 °F 100% 30.19 in 7.0 mi SSW 6.9 mph - N/A   Overcast
5:35 AM 64.4 °F 64.4 °F 100% 30.19 in 7.0 mi SSW 4.6 mph - N/A   Overcast
5:55 AM 64.4 °F 64.4 °F 100% 30.19 in 5.0 mi SSW 6.9 mph - N/A   Overcast
6:15 AM 64.4 °F 64.4 °F 100% 30.19 in 4.0 mi SSW 6.9 mph - N/A   Overcast
6:35 AM 64.4 °F 64.4 °F 100% 30.20 in 4.0 mi SSW 5.8 mph - N/A   Overcast
6:55 AM 64.4 °F 64.4 °F 100% 30.20 in 3.0 mi South 6.9 mph - N/A   Overcast
7:15 AM 64.4 °F 64.4 °F 100% 30.20 in 2.5 mi SSW 5.8 mph - N/A   Overcast
7:35 AM 64.4 °F 64.4 °F 100% 30.20 in 1.5 mi South 5.8 mph - N/A   Overcast
7:55 AM 64.4 °F 64.4 °F 100% 30.20 in 2.5 mi SSW 4.6 mph - N/A   Overcast
8:15 AM 64.4 °F 64.4 °F 100% 30.21 in 3.0 mi SSW 3.5 mph - N/A   Overcast
8:35 AM 64.4 °F 64.4 °F 100% 30.21 in 4.0 mi SW 6.9 mph - N/A   Overcast
8:55 AM 66.2 °F 66.2 °F 100% 30.21 in 5.0 mi SW 5.8 mph - N/A   Overcast
9:15 AM 64.4 °F 64.4 °F 100% 30.21 in 5.0 mi SW 8.1 mph - N/A   Overcast
9:35 AM 66.2 °F 66.2 °F 100% 30.21 in 7.0 mi SW 5.8 mph - N/A   Mostly Cloudy
9:55 AM 66.2 °F 66.2 °F 100% 30.22 in 7.0 mi SW 4.6 mph - N/A   Mostly Cloudy
10:15 AM 66.2 °F 66.2 °F 100% 30.21 in 2.5 mi South 4.6 mph - N/A   Overcast
10:35 AM 68.0 °F 66.2 °F 94% 30.21 in 7.0 mi SW 5.8 mph - N/A   Overcast
10:55 AM 69.8 °F 66.2 °F 88% 30.21 in 10.0 mi SW 5.8 mph - N/A   Overcast
11:15 AM 69.8 °F 66.2 °F 88% 30.22 in 10.0 mi Calm Calm - N/A   Overcast
11:35 AM 69.8 °F 66.2 °F 88% 30.22 in 7.0 mi WSW 3.5 mph - N/A   Overcast
11:55 AM 68.0 °F 68.0 °F 100% 30.23 in 0.5 mi SSW 3.5 mph - N/A Fog Fog
12:15 PM 69.8 °F 68.0 °F 94% 30.23 in 5.0 mi SSW 4.6 mph - N/A   Overcast
12:35 PM 69.8 °F 68.0 °F 94% 30.23 in 0.2 mi Calm Calm - N/A Fog Fog
12:55 PM 68.0 °F 68.0 °F 100% 30.22 in 0.2 mi SSE 3.5 mph - N/A Fog Fog
1:15 PM 69.8 °F 69.8 °F 100% 30.22 in 1.8 mi South 5.8 mph - N/A   Overcast
1:35 PM 71.6 °F 69.8 °F 94% 30.21 in 2.5 mi SSE 5.8 mph - N/A   Overcast
1:55 PM 69.8 °F 69.8 °F 100% 30.21 in 3.0 mi SSE 4.6 mph - N/A   Overcast
2:15 PM 68.0 °F 68.0 °F 100% 30.22 in 2.5 mi SSW 5.8 mph - 0.11 in Rain Rain
2:35 PM 66.2 °F 66.2 °F 100% 30.21 in 4.0 mi SSE 3.5 mph - 0.29 in Rain Rain
2:55 PM 68.0 °F 68.0 °F 100% 30.21 in 1.5 mi South 5.8 mph - N/A Rain Light Rain
3:15 PM 69.8 °F 69.8 °F 100% 30.21 in 7.0 mi South 5.8 mph - N/A   Mostly Cloudy
3:35 PM 69.8 °F 69.8 °F 100% 30.21 in 5.0 mi SW 4.6 mph - N/A   Mostly Cloudy
3:55 PM 69.8 °F 68.0 °F 94% 30.20 in 0.5 mi South 5.8 mph - N/A Fog Fog
4:15 PM 69.8 °F 69.8 °F 100% 30.20 in 1.5 mi South 6.9 mph - N/A Thunderstorm Overcast
4:35 PM 68.0 °F 68.0 °F 100% 30.20 in 5.0 mi South 6.9 mph - N/A   Overcast
4:55 PM 69.8 °F 68.0 °F 94% 30.20 in 2.0 mi South 5.8 mph - N/A   Overcast
5:15 PM 68.0 °F 68.0 °F 100% 30.20 in 3.0 mi South 6.9 mph - 0.18 in Rain Light Rain
5:35 PM 68.0 °F 68.0 °F 100% 30.20 in 4.0 mi South 9.2 mph - 0.18 in Rain Light Rain
5:55 PM 66.2 °F 66.2 °F 100% 30.20 in 4.0 mi SSW 6.9 mph - 0.02 in Rain Rain
6:15 PM 66.2 °F 66.2 °F 100% 30.20 in 5.0 mi South 6.9 mph - 0.08 in Rain Rain
6:35 PM 66.2 °F 66.2 °F 100% 30.19 in 3.0 mi South 5.8 mph - 0.09 in   Overcast
6:55 PM 66.2 °F 66.2 °F 100% 30.19 in 0.2 mi South 11.5 mph - N/A Fog Fog
7:15 PM 66.2 °F 66.2 °F 100% 30.19 in 2.0 mi SSW 8.1 mph - N/A Thunderstorm Overcast
7:35 PM 66.2 °F 66.2 °F 100% 30.19 in 0.2 mi SSW 9.2 mph - N/A Fog Fog
7:55 PM 66.2 °F 66.2 °F 100% 30.19 in 1.8 mi SSW 6.9 mph 16.1 mph N/A   Overcast
8:15 PM 66.2 °F 66.2 °F 100% 30.19 in 0.2 mi South 6.9 mph - N/A Fog Fog
8:35 PM 66.2 °F 66.2 °F 100% 30.20 in 0.2 mi South 11.5 mph 17.3 mph N/A Fog Fog
8:55 PM 66.2 °F 66.2 °F 100% 30.19 in 0.5 mi South 11.5 mph 18.4 mph N/A Fog Fog
9:15 PM 66.2 °F 66.2 °F 100% 30.20 in 0.2 mi South 12.7 mph 18.4 mph N/A Fog Fog
9:35 PM 66.2 °F 66.2 °F 100% 30.20 in 2.5 mi South 11.5 mph 17.3 mph N/A   Overcast
9:55 PM 66.2 °F 66.2 °F 100% 30.20 in 2.5 mi South 9.2 mph - N/A   Overcast
10:15 PM 66.2 °F 66.2 °F 100% 30.20 in 1.0 mi South 11.5 mph - N/A   Overcast
10:35 PM 66.2 °F 66.2 °F 100% 30.19 in 0.5 mi South 9.2 mph - N/A Fog Fog
10:55 PM 66.2 °F 66.2 °F 100% 30.19 in 0.8 mi SSW 6.9 mph - N/A   Overcast
11:15 PM 66.2 °F 66.2 °F 100% 30.19 in 10.0 mi SSW 8.1 mph - N/A   Mostly Cloudy
11:35 PM 66.2 °F 66.2 °F 100% 30.19 in 10.0 mi SW 12.7 mph 17.3 mph N/A   Overcast
11:55 PM 66.2 °F 66.2 °F 100% 30.18 in 10.0 mi SW 10.4 mph - N/A   Mostly Cloudy